Regional Weather Roundup
Issued by NWS

Home | Current Version | Previous Version | Graphics & Text | Print | Product List | Glossary On
Versions: 1 2 3 4 5 6 7 8 9 10 11 12 13 14 15 16 17 18 19 20 21 22 23 24 25 26 27 28 29 30 31 32 33 34 35 36 37 38 39 40 41 42 43 44 45 46 47 48 49 50
000
ASUS43 KBIS 301802
RWRND

NORTH DAKOTA REGIONAL WEATHER ROUNDUP
NATIONAL WEATHER SERVICE BISMARCK ND
100 PM CDT THU JUL 30 2015

NOTE: "FAIR" INDICATES FEW OR NO CLOUDS BELOW 12,000 FEET WITH NO
SIGNIFICANT WEATHER AND/OR OBSTRUCTIONS TO VISIBILITY.


NDZ001>003-009>011-017-301900-
NORTHWEST NORTH DAKOTA

CITY           SKY/WX    TMP DP  RH WIND       PRES   REMARKS
WILLISTON      SUNNY     80  48  32 NW12      30.19S
6HR MIN TEMP:  53; 6HR MAX TEMP:  80;

MINOT          SUNNY     80  49  33 NW18G25   30.12S
MINOT AFB      SUNNY     80  52  38 NW16G24   30.11R
$$

NDZ018>021-031>035-040>046-301900-
SOUTHWEST NORTH DAKOTA

CITY           SKY/WX    TMP DP  RH WIND       PRES   REMARKS
BISMARCK       SUNNY     80  53  39 N13       30.15S
6HR MIN TEMP:  57; 6HR MAX TEMP:  81;

DICKINSON      SUNNY     80  49  33 N9        30.19S
GARRISON         N/A     76  55  48 NW12G21   30.15S
6HR MIN TEMP:  52; 6HR MAX TEMP:  77;

HETTINGER ARPT SUNNY     86  42  21 W17G24    30.21S
$$

NDZ004>008-012>016-024-026-027-054-301900-
NORTHEAST NORTH DAKOTA

CITY           SKY/WX    TMP DP  RH WIND       PRES   REMARKS
GRAND FORKS    MOSUNNY   81  53  37 NW17G29   30.00S
GRND FRKS AFB  SUNNY     79  57  46 NW13      30.02S
DEVILS LAKE    SUNNY     77  55  47 W20       30.06S
$$

NDZ022-023-025-028>030-036>039-047>053-301900-
SOUTHEAST NORTH DAKOTA

CITY           SKY/WX    TMP DP  RH WIND       PRES   REMARKS
FARGO          SUNNY     82  55  39 W17       30.05S
6HR MIN TEMP:  61; 6HR MAX TEMP:  82;

JAMESTOWN      SUNNY     78  54  43 W14       30.10F
$$



USA.gov is the U.S. government's official web portal to all federal, state and local government web resources and services.